| time (UTC) | temp C | wind direction | speed KPH | gust KPH | rain 1hr cm | rain 24hr cm | rain mn cm | humidity % | barometer mb |
| 20260508082638 | 0 | 282 | 0.0 | 0.0 | 0.00 | 0.00 | 0.00 | 97 | 1015.0 |
| 20260508082136 | 0 | 282 | 0.0 | 0.0 | 0.00 | 0.00 | 0.00 | 97 | 1014.9 |
| 20260508081633 | 0 | 282 | 0.0 | 0.0 | 0.00 | 0.00 | 0.00 | 97 | 1014.8 |
| 20260508081129 | 0 | 282 | 0.0 | 0.0 | 0.00 | 0.00 | 0.00 | 97 | 1014.9 |
| 20260508080627 | 0 | 282 | 0.0 | 0.0 | 0.00 | 0.00 | 0.00 | 97 | 1015.1 |
| 20260508080125 | 0 | 282 | 0.0 | 0.0 | 0.00 | 0.00 | 0.00 | 97 | 1014.9 |
| 20260508075620 | 0 | 282 | 0.0 | 0.0 | 0.00 | 0.00 | 0.00 | 96 | 1014.8 |
| 20260508075118 | 0 | 282 | 0.0 | 0.0 | 0.00 | 0.00 | 0.00 | 96 | 1014.9 |
| 20260508074610 | 0 | 282 | 0.0 | 0.0 | 0.00 | 0.00 | 0.00 | 96 | 1014.8 |
| 20260508074107 | 0 | 282 | 0.0 | 0.0 | 0.00 | 0.00 | 0.00 | 96 | 1015.0 |
| 20260508073604 | 0 | 282 | 0.0 | 0.0 | 0.00 | 0.00 | 0.00 | 96 | 1014.7 |
| 20260508073102 | 0 | 282 | 0.0 | 0.0 | 0.00 | 0.00 | 0.00 | 96 | 1014.8 |
| 20260508072557 | 0 | 283 | 0.0 | 0.0 | 0.00 | 0.00 | 0.00 | 96 | 1014.8 |
| 20260508072055 | 1 | 282 | 0.0 | 0.0 | 0.00 | 0.00 | 0.00 | 96 | 1014.6 |
| 20260508071553 | 1 | 282 | 0.0 | 0.0 | 0.00 | 0.00 | 0.00 | 95 | 1015.0 |
| 20260508071050 | 0 | 282 | 0.0 | 0.0 | 0.00 | 0.00 | 0.00 | 95 | 1014.7 |
| 20260508070547 | 0 | 282 | 0.0 | 0.0 | 0.00 | 0.00 | 0.00 | 95 | 1014.6 |
| 20260508070045 | 1 | 282 | 0.0 | 0.0 | 0.00 | 0.00 | 0.00 | 95 | 1014.9 |
| 20260508065543 | 1 | 282 | 0.0 | 0.0 | 0.00 | 0.00 | 0.00 | 95 | 1014.8 |
| 20260508065041 | 1 | 282 | 0.0 | 0.0 | 0.00 | 0.00 | 0.00 | 95 | 1015.0 |
| 20260508064538 | 1 | 282 | 0.0 | 1.6 | 0.00 | 0.00 | 0.00 | 95 | 1014.9 |
| 20260508064035 | 1 | 282 | 0.0 | 0.0 | 0.00 | 0.00 | 0.00 | 95 | 1015.1 |
| 20260508063533 | 1 | 282 | 0.0 | 0.0 | 0.00 | 0.00 | 0.00 | 95 | 1014.8 |
| 20260508063031 | 1 | 281 | 1.6 | 3.2 | 0.00 | 0.00 | 0.00 | 96 | 1015.1 |
| 20260508062528 | 1 | 281 | 0.0 | 0.0 | 0.00 | 0.00 | 0.00 | 96 | 1015.0 |
| 20260508062024 | 1 | 281 | 0.0 | 0.0 | 0.00 | 0.00 | 0.00 | 96 | 1014.7 |
| 20260508061522 | 1 | 280 | 0.0 | 0.0 | 0.00 | 0.00 | 0.00 | 96 | 1014.9 |
| 20260508061020 | 1 | 280 | 0.0 | 0.0 | 0.00 | 0.00 | 0.00 | 96 | 1014.9 |
| 20260508060516 | 1 | 280 | 0.0 | 0.0 | 0.00 | 0.00 | 0.00 | 95 | 1014.7 |
| 20260508060014 | 1 | 280 | 0.0 | 0.0 | 0.00 | 0.00 | 0.00 | 95 | 1014.6 |
| 20260508055509 | 2 | 280 | 0.0 | 0.0 | 0.00 | 0.00 | 0.00 | 95 | 1014.6 |
| 20260508055005 | 2 | 280 | 0.0 | 0.0 | 0.00 | 0.00 | 0.00 | 94 | 1014.6 |
| 20260508054502 | 2 | 280 | 0.0 | 0.0 | 0.00 | 0.00 | 0.00 | 94 | 1014.9 |
| 20260508053959 | 2 | 280 | 0.0 | 0.0 | 0.00 | 0.00 | 0.00 | 93 | 1014.6 |
| 20260508053456 | 2 | 280 | 0.0 | 0.0 | 0.00 | 0.00 | 0.00 | 92 | 1014.6 |
| 20260508052954 | 2 | 282 | 0.0 | 1.6 | 0.00 | 0.00 | 0.00 | 93 | 1014.7 |
| 20260508052451 | 2 | 282 | 0.0 | 0.0 | 0.00 | 0.00 | 0.00 | 91 | 1014.3 |
| 20260508051948 | 2 | 283 | 0.0 | 0.0 | 0.00 | 0.00 | 0.00 | 91 | 1014.6 |
| 20260508051443 | 2 | 283 | 0.0 | 0.0 | 0.00 | 0.00 | 0.00 | 92 | 1014.3 |
| 20260508050939 | 2 | 283 | 0.0 | 0.0 | 0.00 | 0.00 | 0.00 | 92 | 1014.6 |
| 20260508050436 | 3 | 283 | 0.0 | 1.6 | 0.00 | 0.00 | 0.00 | 92 | 1014.5 |
| 20260508045933 | 3 | 283 | 0.0 | 0.0 | 0.00 | 0.00 | 0.00 | 94 | 1014.4 |
| 20260508045430 | 3 | 283 | 0.0 | 0.0 | 0.00 | 0.00 | 0.00 | 92 | 1014.4 |
| 20260508044927 | 3 | 283 | 0.0 | 0.0 | 0.00 | 0.00 | 0.00 | 92 | 1014.5 |
| 20260508044425 | 3 | 283 | 0.0 | 0.0 | 0.00 | 0.00 | 0.00 | 92 | 1014.5 |
| 20260508043920 | 3 | 283 | 0.0 | 0.0 | 0.00 | 0.00 | 0.00 | 92 | 1014.4 |
| 20260508043418 | 3 | 283 | 0.0 | 0.0 | 0.00 | 0.00 | 0.00 | 92 | 1014.5 |
| 20260508042913 | 3 | 283 | 0.0 | 0.0 | 0.00 | 0.00 | 0.00 | 90 | 1014.2 |
| 20260508042412 | 3 | 282 | 0.0 | 0.0 | 0.00 | 0.00 | 0.00 | 88 | 1014.3 |
| 20260508041908 | 3 | 282 | 1.6 | 3.2 | 0.00 | 0.00 | 0.00 | 89 | 1014.4 |
| 20260508041405 | 4 | 282 | 1.6 | 3.2 | 0.00 | 0.00 | 0.00 | 89 | 1014.3 |
| 20260508040901 | 4 | 278 | 3.2 | 4.8 | 0.00 | 0.00 | 0.00 | 89 | 1014.3 |
| 20260508040358 | 4 | 289 | 3.2 | 4.8 | 0.00 | 0.00 | 0.00 | 89 | 1014.1 |
| 20260508035857 | 4 | 292 | 3.2 | 4.8 | 0.00 | 0.03 | 0.03 | 88 | 1014.0 |
| 20260508035353 | 4 | 292 | 1.6 | 4.8 | 0.00 | 0.03 | 0.03 | 88 | 1013.7 |
| 20260508034850 | 5 | 302 | 3.2 | 4.8 | 0.00 | 0.03 | 0.03 | 87 | 1014.0 |
| 20260508034347 | 5 | 302 | 3.2 | 3.2 | 0.00 | 0.03 | 0.03 | 86 | 1014.2 |
| 20260508033844 | 5 | 302 | 4.8 | 4.8 | 0.00 | 0.03 | 0.03 | 87 | 1014.0 |
| 20260508033342 | 5 | 276 | 3.2 | 3.2 | 0.00 | 0.03 | 0.03 | 88 | 1014.1 |
| 20260508032839 | 5 | 276 | 3.2 | 3.2 | 0.00 | 0.03 | 0.03 | 88 | 1014.2 |
| 20260508032337 | 5 | 273 | 1.6 | 3.2 | 0.00 | 0.03 | 0.03 | 88 | 1013.9 |
| 20260508031833 | 5 | 273 | 1.6 | 3.2 | 0.00 | 0.03 | 0.03 | 88 | 1014.1 |
| 20260508031330 | 5 | 274 | 3.2 | 3.2 | 0.00 | 0.03 | 0.03 | 88 | 1013.6 |
| 20260508030826 | 5 | 272 | 1.6 | 3.2 | 0.00 | 0.03 | 0.03 | 88 | 1013.9 |
| 20260508030324 | 5 | 297 | 1.6 | 1.6 | 0.00 | 0.03 | 0.03 | 86 | 1013.9 |
| 20260508025820 | 5 | 297 | 1.6 | 3.2 | 0.00 | 0.03 | 0.03 | 85 | 1013.7 |
| 20260508025317 | 5 | 298 | 1.6 | 3.2 | 0.00 | 0.03 | 0.03 | 86 | 1013.6 |
| 20260508024814 | 5 | 301 | 1.6 | 4.8 | 0.00 | 0.03 | 0.03 | 86 | 1013.6 |
| 20260508024311 | 5 | 301 | 3.2 | 3.2 | 0.00 | 0.03 | 0.03 | 85 | 1013.5 |
| 20260508023808 | 5 | 302 | 1.6 | 4.8 | 0.00 | 0.03 | 0.03 | 86 | 1013.4 |
| 20260508023304 | 6 | 302 | 1.6 | 3.2 | 0.00 | 0.03 | 0.03 | 85 | 1013.4 |
| 20260508022800 | 6 | 301 | 1.6 | 3.2 | 0.00 | 0.03 | 0.03 | 84 | 1013.3 |
| 20260508022257 | 6 | 300 | 1.6 | 3.2 | 0.00 | 0.03 | 0.03 | 84 | 1013.3 |
| 20260508021754 | 6 | 300 | 4.8 | 4.8 | 0.00 | 0.03 | 0.03 | 83 | 1013.0 |
| 20260508021249 | 6 | 279 | 1.6 | 3.2 | 0.00 | 0.03 | 0.03 | 82 | 1013.2 |
| 20260508020746 | 6 | 279 | 1.6 | 3.2 | 0.00 | 0.03 | 0.03 | 84 | 1013.0 |
| 20260508020244 | 6 | 279 | 0.0 | 0.0 | 0.00 | 0.03 | 0.03 | 83 | 1013.0 |
| 20260508015741 | 6 | 279 | 0.0 | 1.6 | 0.00 | 0.03 | 0.03 | 82 | 1013.2 |
| 20260508015238 | 6 | 279 | 1.6 | 1.6 | 0.00 | 0.03 | 0.03 | 81 | 1012.9 |
| 20260508014735 | 7 | 279 | 0.0 | 0.0 | 0.00 | 0.03 | 0.03 | 78 | 1013.0 |
| 20260508014232 | 7 | 279 | 3.2 | 3.2 | 0.00 | 0.03 | 0.03 | 78 | 1013.0 |
| 20260508013727 | 7 | 279 | 1.6 | 1.6 | 0.00 | 0.03 | 0.03 | 77 | 1012.7 |
| 20260508013224 | 8 | 279 | 1.6 | 1.6 | 0.00 | 0.03 | 0.03 | 76 | 1012.8 |
| 20260508012722 | 8 | 279 | 0.0 | 0.0 | 0.00 | 0.03 | 0.03 | 73 | 1012.6 |
| 20260508012218 | 8 | 279 | 0.0 | 0.0 | 0.00 | 0.03 | 0.03 | 72 | 1012.3 |
| 20260508011717 | 8 | 279 | 0.0 | 0.0 | 0.00 | 0.03 | 0.03 | 72 | 1012.4 |
| 20260508011214 | 8 | 279 | 0.0 | 0.0 | 0.00 | 0.03 | 0.03 | 70 | 1012.7 |
| 20260508010710 | 8 | 279 | 1.6 | 3.2 | 0.00 | 0.03 | 0.03 | 70 | 1012.6 |
| 20260508010208 | 9 | 279 | 3.2 | 4.8 | 0.00 | 0.03 | 0.03 | 70 | 1012.4 |
| 20260508005706 | 10 | 270 | 1.6 | 3.2 | 0.00 | 0.03 | 0.03 | 63 | 1012.5 |
| 20260508005202 | 10 | 288 | 1.6 | 1.6 | 0.00 | 0.03 | 0.03 | 63 | 1012.4 |
| 20260508004657 | -17 | 0.0 | 0.0 | 0.00 | 0.00 | 0.00 | 1012.3 | ||
| 20260508004154 | -17 | 0.0 | 0.0 | 0.00 | 0.00 | 0.00 | 1012.3 | ||
| 20260508003651 | -17 | 0.0 | 0.0 | 0.00 | 0.03 | 0.03 | 1012.0 | ||
| 20260508003148 | -17 | 0.0 | 0.0 | 0.00 | 0.03 | 0.03 | 1012.0 | ||
| 20260508002644 | -17 | 0.0 | 0.0 | 0.00 | 0.03 | 0.03 | 1012.2 | ||
| 20260508002143 | -17 | 0.0 | 0.0 | 0.00 | 0.03 | 0.03 | 1011.8 | ||
| 20260508001637 | -17 | 0.0 | 0.0 | 0.00 | 0.03 | 0.03 | 1011.8 | ||
| 20260508001133 | -17 | 0.0 | 0.0 | 0.00 | 0.03 | 0.03 | 1011.8 | ||
| 20260508000629 | -17 | 0.0 | 0.0 | 0.00 | 0.03 | 0.03 | 1011.7 | ||
| 20260508000127 | -17 | 0.0 | 0.0 | 0.00 | 0.03 | 0.03 | 1011.8 | ||
| 20260507235624 | -17 | 0.0 | 0.0 | 0.00 | 0.03 | 0.03 | 1011.8 | ||
| 20260507235121 | 12 | 305 | 6.4 | 6.4 | 0.00 | 0.03 | 0.03 | 56 | 1011.6 |
| 20260507234617 | 12 | 305 | 6.4 | 6.4 | 0.00 | 0.03 | 0.03 | 56 | 1011.5 |
| 20260507234114 | 12 | 315 | 6.4 | 6.4 | 0.00 | 0.03 | 0.03 | 56 | 1011.5 |
| 20260507233611 | 12 | 317 | 4.8 | 6.4 | 0.00 | 0.03 | 0.03 | 56 | 1011.7 |
| 20260507233110 | 12 | 313 | 8.0 | 9.7 | 0.00 | 0.03 | 0.03 | 55 | 1011.4 |
| 20260507232605 | 12 | 318 | 6.4 | 9.7 | 0.00 | 0.03 | 0.03 | 57 | 1011.5 |
| 20260507232103 | 12 | 314 | 9.7 | 12.9 | 0.00 | 0.03 | 0.03 | 55 | 1011.4 |
| 20260507231559 | -17 | 0.0 | 0.0 | 0.00 | 0.03 | 0.03 | 1011.1 | ||
| 20260507231057 | 12 | 311 | 3.2 | 4.8 | 0.00 | 0.03 | 0.03 | 58 | 1011.0 |
| 20260507230553 | 12 | 311 | 3.2 | 4.8 | 0.00 | 0.03 | 0.03 | 58 | 1010.9 |
| 20260507230050 | -17 | 0.0 | 0.0 | 0.00 | 0.03 | 0.03 | 1011.2 | ||
| 20260507225544 | -17 | 0.0 | 0.0 | 0.00 | 0.03 | 0.03 | 1011.1 | ||
| 20260507225041 | 13 | 301 | 8.0 | 11.3 | 0.00 | 0.03 | 0.03 | 54 | 1010.9 |
| 20260507224537 | 13 | 301 | 8.0 | 11.3 | 0.00 | 0.03 | 0.03 | 54 | 1011.1 |
| 20260507224034 | 14 | 296 | 6.4 | 9.7 | 0.00 | 0.03 | 0.03 | 55 | 1010.9 |
| 20260507223530 | -17 | 0.0 | 0.0 | 0.00 | 0.03 | 0.03 | 1010.9 | ||
| 20260507223027 | -17 | 0.0 | 0.0 | 0.00 | 0.03 | 0.03 | 1010.9 | ||
| 20260507222524 | 13 | 286 | 6.4 | 9.7 | 0.00 | 0.03 | 0.03 | 54 | 1010.5 |
| 20260507222020 | 13 | 286 | 6.4 | 9.7 | 0.00 | 0.03 | 0.03 | 54 | 1010.8 |
| 20260507221517 | 15 | 282 | 4.8 | 4.8 | 0.00 | 0.03 | 0.03 | 54 | 1010.8 |
| 20260507221014 | 15 | 282 | 4.8 | 4.8 | 0.00 | 0.03 | 0.03 | 54 | 1010.7 |
| 20260507220511 | 15 | 67 | 1.6 | 3.2 | 0.00 | 0.03 | 0.03 | 54 | 1010.5 |
| 20260507220009 | 16 | 291 | 6.4 | 9.7 | 0.00 | 0.03 | 0.03 | 54 | 1010.3 |
| 20260507215505 | 16 | 304 | 3.2 | 4.8 | 0.00 | 0.03 | 0.03 | 55 | 1010.7 |
| 20260507215003 | 16 | 304 | 3.2 | 4.8 | 0.00 | 0.03 | 0.03 | 55 | 1010.3 |
| 20260507214459 | 16 | 289 | 6.4 | 6.4 | 0.00 | 0.03 | 0.03 | 51 | 1010.1 |
| 20260507213954 | 16 | 115 | 3.2 | 6.4 | 0.00 | 0.03 | 0.03 | 54 | 1010.5 |
| 20260507213447 | 16 | 348 | 9.7 | 11.3 | 0.00 | 0.03 | 0.03 | 51 | 1010.0 |
| 20260507212943 | 16 | 334 | 6.4 | 14.5 | 0.00 | 0.03 | 0.03 | 51 | 1010.2 |
| 20260507212439 | 15 | 310 | 6.4 | 9.7 | 0.00 | 0.03 | 0.03 | 54 | 1010.2 |
| 20260507211936 | 16 | 320 | 8.0 | 12.9 | 0.00 | 0.03 | 0.03 | 51 | 1010.0 |
| 20260507211432 | 16 | 301 | 4.8 | 4.8 | 0.00 | 0.03 | 0.03 | 52 | 1010.0 |
| 20260507210929 | 16 | 291 | 3.2 | 11.3 | 0.00 | 0.03 | 0.03 | 54 | 1009.7 |
| 20260507210421 | 16 | 314 | 6.4 | 9.7 | 0.00 | 0.03 | 0.03 | 53 | 1009.9 |
| 20260507205917 | 16 | 355 | 3.2 | 11.3 | 0.00 | 0.03 | 0.03 | 49 | 1009.9 |
| 20260507205415 | 16 | 288 | 4.8 | 9.7 | 0.00 | 0.03 | 0.03 | 52 | 1009.9 |
| 20260507204910 | 16 | 268 | 6.4 | 9.7 | 0.00 | 0.03 | 0.03 | 49 | 1009.8 |
| 20260507204407 | 16 | 278 | 8.0 | 9.7 | 0.00 | 0.03 | 0.03 | 55 | 1009.8 |
| 20260507203905 | 17 | 181 | 8.0 | 9.7 | 0.00 | 0.03 | 0.03 | 51 | 1009.6 |
| 20260507203402 | 16 | 284 | 6.4 | 9.7 | 0.00 | 0.03 | 0.03 | 52 | 1009.7 |
| 20260507202858 | 16 | 332 | 3.2 | 6.4 | 0.00 | 0.03 | 0.03 | 56 | 1009.8 |
| 20260507202355 | 16 | 259 | 8.0 | 11.3 | 0.00 | 0.03 | 0.03 | 54 | 1010.0 |
| 20260507201850 | 16 | 308 | 3.2 | 11.3 | 0.00 | 0.03 | 0.03 | 56 | 1009.9 |
| 20260507201346 | 16 | 229 | 9.7 | 11.3 | 0.00 | 0.03 | 0.03 | 54 | 1009.9 |
| 20260507200843 | 16 | 277 | 4.8 | 22.5 | 0.00 | 0.03 | 0.03 | 57 | 1010.0 |
| 20260507200339 | 16 | 350 | 3.2 | 6.4 | 0.00 | 0.03 | 0.03 | 53 | 1009.9 |
| 20260507195835 | 16 | 326 | 6.4 | 9.7 | 0.00 | 0.03 | 0.03 | 56 | 1010.0 |
| 20260507195332 | 15 | 161 | 3.2 | 4.8 | 0.00 | 0.03 | 0.03 | 55 | 1010.0 |
| 20260507194830 | 15 | 285 | 8.0 | 11.3 | 0.00 | 0.03 | 0.03 | 58 | 1010.0 |
| 20260507194325 | 15 | 222 | 4.8 | 12.9 | 0.00 | 0.03 | 0.03 | 61 | 1010.2 |
| 20260507193822 | 16 | 291 | 8.0 | 12.9 | 0.00 | 0.03 | 0.03 | 61 | 1010.3 |
| 20260507193319 | 15 | 252 | 3.2 | 6.4 | 0.00 | 0.03 | 0.03 | 64 | 1010.3 |
| 20260507192814 | 14 | 290 | 6.4 | 16.1 | 0.00 | 0.03 | 0.03 | 62 | 1010.5 |
| 20260507192312 | 14 | 288 | 11.3 | 17.7 | 0.00 | 0.03 | 0.03 | 62 | 1010.7 |
| 20260507191808 | 15 | 320 | 4.8 | 11.3 | 0.00 | 0.03 | 0.03 | 61 | 1010.7 |
| 20260507191304 | 15 | 328 | 6.4 | 12.9 | 0.00 | 0.03 | 0.03 | 61 | 1010.7 |
| 20260507190801 | 14 | 317 | 14.5 | 17.7 | 0.00 | 0.03 | 0.03 | 63 | 1011.0 |
| 20260507190300 | 13 | 338 | 9.7 | 14.5 | 0.00 | 0.03 | 0.03 | 65 | 1010.8 |
| 20260507185758 | 13 | 278 | 6.4 | 9.7 | 0.00 | 0.03 | 0.03 | 65 | 1010.7 |
| 20260507185254 | 13 | 265 | 6.4 | 9.7 | 0.00 | 0.03 | 0.03 | 65 | 1011.0 |
| 20260507184752 | 13 | 328 | 9.7 | 14.5 | 0.00 | 0.03 | 0.03 | 65 | 1010.9 |
| 20260507184250 | 15 | 291 | 3.2 | 6.4 | 0.00 | 0.03 | 0.03 | 66 | 1010.7 |
| 20260507183747 | 15 | 312 | 3.2 | 4.8 | 0.00 | 0.03 | 0.03 | 67 | 1010.8 |
| 20260507183244 | 15 | 286 | 3.2 | 6.4 | 0.00 | 0.03 | 0.03 | 64 | 1010.7 |
| 20260507182742 | 16 | 275 | 6.4 | 6.4 | 0.00 | 0.03 | 0.03 | 64 | 1010.6 |
| 20260507182241 | 16 | 154 | 1.6 | 6.4 | 0.00 | 0.03 | 0.03 | 63 | 1010.5 |
| 20260507181739 | 15 | 311 | 4.8 | 9.7 | 0.00 | 0.03 | 0.03 | 61 | 1010.6 |
| 20260507181235 | 15 | 304 | 4.8 | 9.7 | 0.00 | 0.03 | 0.03 | 63 | 1010.6 |
| 20260507180732 | 13 | 276 | 4.8 | 9.7 | 0.00 | 0.03 | 0.03 | 65 | 1010.7 |
| 20260507180229 | 13 | 290 | 6.4 | 9.7 | 0.00 | 0.03 | 0.03 | 67 | 1010.8 |
| 20260507175724 | 13 | 278 | 8.0 | 12.9 | 0.00 | 0.03 | 0.03 | 66 | 1010.7 |
| 20260507175221 | 13 | 306 | 3.2 | 4.8 | 0.00 | 0.03 | 0.03 | 65 | 1010.6 |
| 20260507174719 | 13 | 343 | 8.0 | 9.7 | 0.00 | 0.03 | 0.03 | 63 | 1010.7 |
| 20260507174217 | 13 | 350 | 6.4 | 9.7 | 0.00 | 0.03 | 0.03 | 61 | 1010.6 |
| 20260507173714 | 14 | 279 | 6.4 | 11.3 | 0.00 | 0.03 | 0.03 | 63 | 1010.6 |
| 20260507173210 | 15 | 320 | 3.2 | 9.7 | 0.00 | 0.03 | 0.03 | 61 | 1010.7 |
| 20260507172707 | 15 | 258 | 14.5 | 17.7 | 0.00 | 0.03 | 0.03 | 61 | 1010.6 |
| 20260507172204 | 15 | 139 | 4.8 | 6.4 | 0.00 | 0.03 | 0.03 | 61 | 1010.8 |
| 20260507171704 | 14 | 87 | 1.6 | 3.2 | 0.00 | 0.03 | 0.03 | 63 | 1010.8 |
| 20260507171202 | 14 | 100 | 3.2 | 4.8 | 0.00 | 0.03 | 0.03 | 64 | 1010.9 |
| 20260507170659 | 14 | 321 | 4.8 | 4.8 | 0.00 | 0.03 | 0.03 | 66 | 1011.1 |
| 20260507170156 | 13 | 326 | 4.8 | 12.9 | 0.00 | 0.03 | 0.03 | 64 | 1011.1 |
| 20260507165651 | 13 | 303 | 6.4 | 9.7 | 0.00 | 0.03 | 0.03 | 63 | 1011.3 |
| 20260507165148 | 14 | 288 | 3.2 | 6.4 | 0.00 | 0.03 | 0.03 | 59 | 1011.3 |
| 20260507164644 | 15 | 310 | 0.0 | 1.6 | 0.00 | 0.03 | 0.03 | 62 | 1011.2 |
| 20260507164141 | 14 | 310 | 3.2 | 6.4 | 0.00 | 0.03 | 0.03 | 68 | 1011.1 |
| 20260507163638 | 14 | 293 | 4.8 | 9.7 | 0.00 | 0.03 | 0.03 | 65 | 1011.1 |
| 20260507163136 | 14 | 240 | 1.6 | 3.2 | 0.00 | 0.03 | 0.03 | 66 | 1011.2 |
| 20260507162632 | 13 | 203 | 3.2 | 3.2 | 0.00 | 0.03 | 0.03 | 70 | 1011.3 |
| 20260507162128 | 13 | 204 | 3.2 | 6.4 | 0.00 | 0.03 | 0.03 | 69 | 1011.4 |
| 20260507161624 | 13 | 328 | 3.2 | 4.8 | 0.00 | 0.03 | 0.03 | 67 | 1011.4 |
| 20260507161121 | 13 | 328 | 1.6 | 4.8 | 0.00 | 0.03 | 0.03 | 65 | 1011.8 |
| 20260507160617 | 13 | 329 | 1.6 | 3.2 | 0.00 | 0.03 | 0.03 | 71 | 1011.5 |
| 20260507160114 | 13 | 329 | 0.0 | 1.6 | 0.00 | 0.03 | 0.03 | 64 | 1011.5 |
| 20260507155609 | 13 | 329 | 0.0 | 1.6 | 0.00 | 0.03 | 0.03 | 69 | 1011.7 |
| 20260507155106 | 12 | 329 | 0.0 | 0.0 | 0.00 | 0.03 | 0.03 | 69 | 1012.0 |
| 20260507154603 | 12 | 329 | 1.6 | 3.2 | 0.00 | 0.03 | 0.03 | 69 | 1011.9 |
| 20260507154100 | 13 | 330 | 1.6 | 3.2 | 0.00 | 0.03 | 0.03 | 72 | 1011.8 |
| 20260507153557 | 12 | 95 | 1.6 | 4.8 | 0.00 | 0.03 | 0.03 | 69 | 1011.6 |
| 20260507153053 | 12 | 96 | 3.2 | 3.2 | 0.00 | 0.03 | 0.03 | 69 | 1011.7 |
| 20260507152549 | 12 | 96 | 3.2 | 4.8 | 0.00 | 0.03 | 0.03 | 69 | 1011.7 |
| 20260507152046 | 12 | 118 | 0.0 | 3.2 | 0.00 | 0.03 | 0.03 | 67 | 1011.7 |
| 20260507151542 | 12 | 321 | 1.6 | 4.8 | 0.00 | 0.03 | 0.03 | 70 | 1012.2 |
| 20260507151039 | 12 | 321 | 3.2 | 3.2 | 0.00 | 0.03 | 0.03 | 69 | 1011.8 |
| 20260507150536 | 11 | 262 | 3.2 | 9.7 | 0.00 | 0.03 | 0.03 | 72 | 1011.9 |
| 20260507150033 | 11 | 336 | 0.0 | 6.4 | 0.00 | 0.03 | 0.03 | 72 | 1012.0 |
| 20260507145527 | 11 | 341 | 8.0 | 9.7 | 0.00 | 0.03 | 0.03 | 73 | 1011.9 |
| 20260507145026 | 11 | 281 | 3.2 | 4.8 | 0.00 | 0.03 | 0.03 | 74 | 1011.8 |
| 20260507144522 | 11 | 330 | 6.4 | 11.3 | 0.00 | 0.03 | 0.03 | 74 | 1011.9 |
| 20260507144020 | 11 | 339 | 6.4 | 9.7 | 0.00 | 0.03 | 0.03 | 73 | 1012.0 |
| 20260507143517 | 11 | 338 | 4.8 | 6.4 | 0.00 | 0.03 | 0.03 | 78 | 1012.0 |
| 20260507143014 | 11 | 340 | 0.0 | 3.2 | 0.00 | 0.03 | 0.03 | 74 | 1012.0 |
| 20260507142509 | 10 | 340 | 3.2 | 6.4 | 0.00 | 0.03 | 0.03 | 74 | 1012.2 |
| 20260507142006 | 10 | 339 | 3.2 | 4.8 | 0.00 | 0.03 | 0.03 | 74 | 1011.9 |
| 20260507141502 | 10 | 339 | 3.2 | 3.2 | 0.00 | 0.03 | 0.03 | 76 | 1012.2 |
| 20260507140959 | 10 | 327 | 6.4 | 9.7 | 0.00 | 0.03 | 0.03 | 77 | 1012.0 |
| 20260507140456 | 10 | 337 | 3.2 | 9.7 | 0.00 | 0.03 | 0.03 | 80 | 1012.2 |
| 20260507135953 | 10 | 336 | 3.2 | 4.8 | 0.00 | 0.03 | 0.03 | 78 | 1012.4 |
| 20260507135450 | 10 | 336 | 4.8 | 6.4 | 0.00 | 0.03 | 0.03 | 78 | 1012.5 |
| 20260507134947 | 10 | 330 | 3.2 | 6.4 | 0.00 | 0.03 | 0.03 | 78 | 1012.5 |
| 20260507134443 | 10 | 340 | 4.8 | 4.8 | 0.00 | 0.03 | 0.03 | 79 | 1012.6 |
| 20260507133940 | 10 | 340 | 3.2 | 3.2 | 0.00 | 0.03 | 0.03 | 81 | 1013.0 |
| 20260507133436 | 9 | 340 | 4.8 | 4.8 | 0.00 | 0.03 | 0.03 | 79 | 1012.8 |
| 20260507132930 | 9 | 342 | 4.8 | 6.4 | 0.00 | 0.03 | 0.03 | 83 | 1012.8 |
| 20260507132425 | 9 | 315 | 3.2 | 4.8 | 0.00 | 0.03 | 0.03 | 82 | 1012.7 |
| 20260507131922 | 9 | 315 | 4.8 | 4.8 | 0.00 | 0.03 | 0.03 | 82 | 1013.0 |
| 20260507131419 | 9 | 312 | 6.4 | 9.7 | 0.00 | 0.03 | 0.03 | 80 | 1012.7 |
| 20260507130916 | 9 | 313 | 6.4 | 6.4 | 0.00 | 0.03 | 0.03 | 82 | 1012.8 |
| 20260507130413 | 9 | 324 | 4.8 | 9.7 | 0.00 | 0.03 | 0.03 | 81 | 1012.9 |
| 20260507125912 | 9 | 307 | 4.8 | 6.4 | 0.00 | 0.03 | 0.03 | 84 | 1012.8 |
| 20260507125409 | 9 | 310 | 6.4 | 6.4 | 0.00 | 0.03 | 0.03 | 85 | 1012.9 |
| 20260507124906 | 9 | 304 | 3.2 | 9.7 | 0.00 | 0.03 | 0.03 | 84 | 1013.0 |
| 20260507124402 | 9 | 310 | 4.8 | 6.4 | 0.00 | 0.03 | 0.03 | 86 | 1012.6 |
| 20260507123901 | 9 | 327 | 6.4 | 11.3 | 0.00 | 0.03 | 0.03 | 85 | 1012.7 |
| 20260507123357 | 9 | 342 | 6.4 | 11.3 | 0.00 | 0.03 | 0.03 | 86 | 1012.7 |
| 20260507122854 | 9 | 344 | 4.8 | 6.4 | 0.00 | 0.03 | 0.03 | 89 | 1012.3 |
| 20260507122349 | 9 | 344 | 4.8 | 6.4 | 0.00 | 0.03 | 0.03 | 88 | 1012.5 |
| 20260507121846 | 9 | 297 | 6.4 | 9.7 | 0.00 | 0.03 | 0.03 | 89 | 1012.4 |
| 20260507121341 | 9 | 282 | 3.2 | 4.8 | 0.00 | 0.03 | 0.03 | 90 | 1012.3 |
| 20260507120838 | 10 | 282 | 4.8 | 4.8 | 0.00 | 0.03 | 0.03 | 90 | 1012.3 |
| 20260507120335 | 9 | 282 | 4.8 | 6.4 | 0.00 | 0.03 | 0.03 | 91 | 1012.2 |
| 20260507115831 | 10 | 280 | 3.2 | 4.8 | 0.00 | 0.03 | 0.03 | 90 | 1012.6 |
| 20260507115326 | 10 | 280 | 4.8 | 6.4 | 0.00 | 0.03 | 0.03 | 91 | 1012.2 |
| 20260507114822 | 10 | 269 | 1.6 | 4.8 | 0.00 | 0.03 | 0.03 | 93 | 1012.4 |
| 20260507114320 | 9 | 243 | 3.2 | 4.8 | 0.00 | 0.03 | 0.03 | 92 | 1012.4 |
| 20260507113817 | 9 | 243 | 1.6 | 3.2 | 0.00 | 0.03 | 0.03 | 92 | 1012.0 |
| 20260507113314 | 9 | 243 | 3.2 | 4.8 | 0.00 | 0.03 | 0.03 | 93 | 1012.2 |
| 20260507112812 | 9 | 242 | 1.6 | 3.2 | 0.00 | 0.03 | 0.03 | 93 | 1011.8 |
| 20260507112308 | 9 | 242 | 3.2 | 4.8 | 0.00 | 0.03 | 0.03 | 93 | 1012.2 |
| 20260507111807 | 9 | 242 | 0.0 | 0.0 | 0.00 | 0.03 | 0.03 | 94 | 1011.9 |
| 20260507111303 | 9 | 242 | 0.0 | 3.2 | 0.00 | 0.03 | 0.03 | 94 | 1012.0 |
| 20260507110759 | 9 | 242 | 1.6 | 3.2 | 0.00 | 0.03 | 0.03 | 94 | 1011.9 |
| 20260507110255 | 9 | 242 | 1.6 | 3.2 | 0.00 | 0.03 | 0.03 | 95 | 1012.0 |
| 20260507105752 | 9 | 242 | 3.2 | 4.8 | 0.00 | 0.03 | 0.03 | 94 | 1011.7 |
| 20260507105248 | 9 | 240 | 1.6 | 3.2 | 0.00 | 0.03 | 0.03 | 95 | 1011.7 |
| 20260507104745 | 9 | 226 | 0.0 | 3.2 | 0.00 | 0.03 | 0.03 | 96 | 1011.6 |
| 20260507104236 | 9 | 226 | 1.6 | 3.2 | 0.00 | 0.03 | 0.03 | 96 | 1011.7 |
| 20260507103732 | 9 | 226 | 0.0 | 1.6 | 0.00 | 0.03 | 0.03 | 96 | 1011.6 |
| 20260507103229 | 10 | 226 | 1.6 | 1.6 | 0.00 | 0.03 | 0.03 | 96 | 1011.7 |
| 20260507102725 | 10 | 226 | 1.6 | 1.6 | 0.00 | 0.03 | 0.03 | 96 | 1011.6 |
| 20260507102221 | 10 | 226 | 1.6 | 1.6 | 0.00 | 0.03 | 0.03 | 96 | 1011.7 |
| 20260507101718 | 10 | 226 | 0.0 | 1.6 | 0.00 | 0.03 | 0.03 | 96 | 1011.4 |
| 20260507101213 | 10 | 226 | 0.0 | 3.2 | 0.00 | 0.03 | 0.03 | 96 | 1011.2 |
| 20260507100711 | 10 | 226 | 0.0 | 0.0 | 0.00 | 0.03 | 0.03 | 96 | 1011.3 |
| 20260507100209 | 10 | 226 | 0.0 | 0.0 | 0.00 | 0.03 | 0.03 | 96 | 1011.4 |
| 20260507095707 | 10 | 226 | 0.0 | 0.0 | 0.00 | 0.03 | 0.03 | 96 | 1011.1 |
| 20260507095203 | 10 | 226 | 0.0 | 0.0 | 0.00 | 0.03 | 0.03 | 96 | 1011.4 |
| 20260507094700 | 10 | 226 | 0.0 | 0.0 | 0.00 | 0.03 | 0.03 | 95 | 1011.3 |
| 20260507094156 | 10 | 226 | 0.0 | 0.0 | 0.00 | 0.03 | 0.03 | 95 | 1011.3 |
| 20260507093654 | 10 | 226 | 0.0 | 0.0 | 0.00 | 0.03 | 0.03 | 95 | 1011.3 |
| 20260507093152 | 10 | 226 | 0.0 | 0.0 | 0.00 | 0.03 | 0.03 | 95 | 1011.6 |
| 20260507092648 | 10 | 226 | 0.0 | 0.0 | 0.00 | 0.03 | 0.03 | 95 | 1011.6 |
| 20260507092139 | 10 | 226 | 0.0 | 0.0 | 0.00 | 0.03 | 0.03 | 95 | 1011.4 |
| 20260507091636 | 10 | 226 | 0.0 | 0.0 | 0.00 | 0.03 | 0.03 | 95 | 1011.2 |
| 20260507091132 | 10 | 226 | 0.0 | 0.0 | 0.00 | 0.03 | 0.03 | 95 | 1011.3 |
| 20260507090628 | -17 | 0.0 | 0.0 | 0.00 | 0.03 | 0.03 | 1011.4 | ||
| 20260507090126 | 10 | 226 | 0.0 | 0.0 | 0.00 | 0.03 | 0.03 | 95 | 1011.5 |
| 20260507085622 | 10 | 226 | 0.0 | 0.0 | 0.00 | 0.03 | 0.03 | 95 | 1011.7 |
| 20260507085119 | 10 | 226 | 1.6 | 3.2 | 0.00 | 0.03 | 0.03 | 95 | 1011.5 |
| 20260507084616 | 10 | 226 | 0.0 | 1.6 | 0.13 | 0.03 | 0.03 | 95 | 1011.5 |
| 20260507084113 | 10 | 226 | 0.0 | 0.0 | 0.13 | 0.03 | 0.03 | 95 | 1011.7 |
| 20260507083609 | -17 | 0.0 | 0.0 | 0.00 | 0.00 | 0.00 | 1011.6 |